CZ-6A R/B, 65233

Orbit data source: Space-Track

CZ-6A R/B, 65233 is space debris in LEO originally from a launch on Sun, 17 Aug 2025 UTC launched from the Taiyaun Space Center, China (TSC). Debris objects in space refer to the collection of defunct objects orbiting the Earth. Examples of debris include non-operational satellites, rocket bodies, and fragments generated from explosions, collisions, or faulty payload assembly.

Loading next visibility...
Identifier
65233, 2025-178F
Orbit
LEO
Country
Flag of CNCN / PRC
Related business
Manufacturer
SAST
Mission
Spacecraft
Bus & Motor
CZ-6A STAGE 2, YF-115
Mass
~6,000 kg wet, ~6,000 kg dry
Launch date (UTC)
2025-08-17 (10 months ago)
Launch vehicle
Unknown
Launch site
Taiyaun Space Center, China (TSC)
Object type
Payload
Rocket body
Debris
Shape & HBR
Unknown shape, 4.1 m
Radar Cross Section
Large (>1 m²)

Expand to show TLE details & history
Last TLE update: 11 hours ago

TLE from 11 hours ago
0 CZ-6A R/B
1 65233U 25178F   26171.43969781  .00000070  00000-0  38338-4 0  9992
2 65233  86.5086   0.3198 0101244 256.4734 102.5145 13.94623192 42776
Epoch: 2026-06-20T10:33Z
TLE epoch observation values (Epoch: 2026-06-20T10:33:09.890Z)
Latitude
0.00003°
Longitude
-66.62571°
Altitude
932.177 km
Speed
7.377 km/s
True Right ascension
00h 01m 16s
True Declination
0° 00' 00"
Sunlit
Object was in daylight at epoch
Visualization orbit readout
Latitude
Unknown
Longitude
Unknown
Altitude
Unknown
Speed
Unknown
Apparent Right ascension
Unknown
Apparent Declination
Unknown
Sunlit
N/A
Visualization observer readout
Local Sidereal Time
08:32:55
Azimuth
Unknown
Elevation
Unknown
Doppler factor
Unknown
Orbital elements
Apogee altitude
983.275 km
Perigee altitude
835.709 km
Semi-major axis
7,287.629 km
Eccentricity
0.01012
Inclination
86.5086°
RAAN
0.3198°
Arg. of periapsis
256.4734°
True anomaly
103.64394°
Mean anomaly
102.5145°
Eccentric anomaly
103.07954°
Mean motion
3.4887 °/min
Orbital period
103.19 mins
BSTAR
0.000038338
Loading maneuver chart data...
Computing Atmospheric mass density...
Loading historical data...
Loading historical data...
Loading historical data...
Loading historical data...
Loading historical data...
Loading historical data...
Loading historical data...

Documentation

Showing up to 5 results
|